Terminal Aerodrome Forecast
Issued by NWS

Home | Current Version | Previous Version | Text Only | Print | Product List | Glossary On
Versions: 1 2 3 4 5 6 7 8 9 10 11 12 13 14 15 16 17 18 19 20 21 22 23 24 25 26 27 28 29 30 31 32 33 34 35 36 37
000
FTPA31 PHFO 220537
TAFMDY
TAF
PMDY 220537Z 2206/2306 14011KT P6SM SCT025 BKN250
     FM220900 15015KT P6SM SCT025 BKN250
     FM221800 17019KT P6SM VCSH SCT025 BKN035
     FM222200 19019KT 3SM -SHRA BR SCT015 BKN025 OVC040
     FM230300 21012G18KT 3SM -SHRA BR SCT015 BKN025 OVC040=

USA.gov is the U.S. government's official web portal to all federal, state and local government web resources and services.